Location: ???? ???? ?????
(31.2680°N, 31.7283°E)
Time: 19:27:03
(UTC+00:00)

Lacrosse 5 - Pass Details

Date: 13 July 2020
Orbit: 717 x 720 km, 57.0° (Epoch: 04 August)

Event Time Altitude Azimuth Distance (km) Brightness Sun altitude
Exits shadow 22:31:32 18° 332° (NNW) 1,700 4.2 -36.5°
Drops below altitude 10° 22:34:21 10° 5° (N) 2,201 5.1 -36.4°
Sets 22:37:24 0° 23° (NNE) 3,124 6.1 -36.3°
